Paris / Charles De Gaulle, France

11:49 PM CEST on August 17, 2017 (GMT +0200)
Charles de Gaulle

Weather History for LFPG - September, 2013

Change the Weather History Date:

Wednesday, September 18, 2013

  Actual Average Record
Temperature  
Mean Temperature 58 °F -  
Max Temperature 64 °F 63 °F 84 °F (1997)
Min Temperature 53 °F 48 °F 42 °F (1996)
Degree Days  
Heating Degree Days 6    
Growing Degree Days 8 (Base 50)    
Moisture  
Dew Point 54 °F    
Average Humidity 82    
Maximum Humidity 94    
Minimum Humidity 68    
Precipitation  
Precipitation 0.00 in - - ()
Sea Level Pressure  
Sea Level Pressure 29.64 in    
Wind  
Wind Speed 14 mph ()    
Max Wind Speed 21 mph    
Max Gust Speed 31 mph    
Visibility 6.1 miles    
Events Rain    
Averages and records for this station are not official NWS values.
T = Trace of Precipitation, MM = Missing Value Source: Averaged Metar Reports

Daily Weather History Graph

Daily Weather History Graph

Search for Another Location

Airport or City:

Trip Planner

Search our weather history database for the weather conditions in past years. The results will help you decide how hot, cold, wet, or windy it might be!

Date:

Astronomy

Sep. 18, 2013 Rise Set
Actual Time 7:30 AM CEST 7:56 PM CEST
Civil Twilight 6:58 AM CEST 8:28 PM CEST
Nautical Twilight 6:21 AM CEST 9:05 PM CEST
Astronomical Twilight 5:41 AM CEST 9:44 PM CEST
Moon 7:10 PM CEST (9/18) 6:12 AM CEST (9/18)
Length of Visible Light 13h 29m
Length of Day
12h 25m
Waxing Gibbous, 99% of the Moon is Illuminated
Sep 18
Waxing Gibbous
Sep 19
Full
Sep 27
Last Quarter
Oct 5
New
Oct 12
First Quarter

Hourly Weather History & Observations

Time (CEST) Temp. Dew Point Humidity Pressure Visibility Wind Dir Wind Speed Gust Speed Precip Events Conditions
12:00 AM 60.8 °F 59.0 °F 94% 29.53 in 6.2 mi West 18.4 mph - N/A Rain Light Rain
12:30 AM 60.8 °F 59.0 °F 94% 29.53 in 6.2 mi West 18.4 mph - N/A   Mostly Cloudy
1:00 AM 60.8 °F 59.0 °F 94% 29.53 in 6.2 mi West 17.3 mph - N/A   Mostly Cloudy
1:30 AM 60.8 °F 57.2 °F 88% 29.53 in 6.2 mi West 16.1 mph - N/A   Scattered Clouds
2:00 AM 60.8 °F 57.2 °F 88% 29.53 in 6.2 mi West 16.1 mph - N/A   Mostly Cloudy
2:30 AM 60.8 °F 57.2 °F 88% 29.53 in 6.2 mi West 18.4 mph - N/A   Mostly Cloudy
3:00 AM 60.8 °F 55.4 °F 82% 29.53 in 6.2 mi West 19.6 mph - N/A   Mostly Cloudy
3:30 AM 60.8 °F 55.4 °F 82% 29.56 in 6.2 mi West 19.6 mph - N/A   Mostly Cloudy
4:00 AM 60.8 °F 55.4 °F 82% 29.53 in 6.2 mi WSW 17.3 mph 31.1 mph N/A   Mostly Cloudy
4:30 AM 60.8 °F 53.6 °F 77% 29.53 in 6.2 mi WSW 18.4 mph - N/A   Mostly Cloudy
5:00 AM 59.0 °F 53.6 °F 82% 29.53 in 6.2 mi West 13.8 mph - N/A   Mostly Cloudy
5:30 AM 59.0 °F 53.6 °F 82% 29.53 in 6.2 mi WSW 16.1 mph - N/A   Mostly Cloudy
6:00 AM 59.0 °F 53.6 °F 82% 29.56 in 6.2 mi West 19.6 mph - N/A   Mostly Cloudy
6:30 AM 57.2 °F 53.6 °F 88% 29.56 in 6.2 mi WNW 13.8 mph - N/A Rain Light Rain
7:00 AM 57.2 °F 53.6 °F 88% 29.56 in 6.2 mi West 17.3 mph - N/A   Mostly Cloudy
7:30 AM 57.2 °F 53.6 °F 88% 29.56 in 6.2 mi West 12.7 mph - N/A   Mostly Cloudy
8:00 AM 57.2 °F 53.6 °F 88% 29.56 in 6.2 mi WSW 10.4 mph - N/A   Mostly Cloudy
8:30 AM 57.2 °F 53.6 °F 88% 29.59 in 6.2 mi WSW 11.5 mph - N/A   Mostly Cloudy
9:00 AM 59.0 °F 53.6 °F 82% 29.59 in 6.2 mi WSW 12.7 mph - N/A   Mostly Cloudy
9:30 AM 59.0 °F 53.6 °F 82% 29.59 in 6.2 mi West 16.1 mph - N/A   Mostly Cloudy
10:00 AM 60.8 °F 53.6 °F 77% 29.59 in 6.2 mi West 17.3 mph - N/A   Mostly Cloudy
10:30 AM 62.6 °F 53.6 °F 72% 29.59 in 6.2 mi West 17.3 mph - N/A   Mostly Cloudy
11:00 AM 60.8 °F 51.8 °F 72% 29.62 in 6.2 mi West 19.6 mph - N/A   Mostly Cloudy
11:30 AM 62.6 °F 53.6 °F 72% 29.62 in 6.2 mi West 17.3 mph - N/A   Mostly Cloudy
12:00 PM 62.6 °F 53.6 °F 72% 29.62 in 6.2 mi West 19.6 mph - N/A   Mostly Cloudy
12:30 PM 64.4 °F 53.6 °F 68% 29.62 in 6.2 mi West 20.7 mph - N/A   Mostly Cloudy
1:00 PM 62.6 °F 51.8 °F 68% 29.62 in 6.2 mi WNW 18.4 mph - N/A Rain Light Rain
1:30 PM 59.0 °F 53.6 °F 82% 29.65 in 3.7 mi West 13.8 mph - N/A Rain Light Rain
2:00 PM 59.0 °F 55.4 °F 88% 29.65 in 6.2 mi West 13.8 mph - N/A Rain Light Rain
2:30 PM 60.8 °F 57.2 °F 88% 29.65 in 6.2 mi West 16.1 mph - N/A   Mostly Cloudy
3:00 PM 60.8 °F 55.4 °F 82% 29.65 in 6.2 mi WNW 16.1 mph - N/A   Mostly Cloudy
3:30 PM 62.6 °F 55.4 °F 77% 29.68 in 6.2 mi West 15.0 mph - N/A   Mostly Cloudy
4:00 PM 60.8 °F 53.6 °F 77% 29.68 in 6.2 mi West 15.0 mph - N/A Rain Light Rain
4:30 PM 59.0 °F 55.4 °F 88% 29.68 in 6.2 mi WNW 8.1 mph - N/A   Mostly Cloudy
5:00 PM 60.8 °F 55.4 °F 82% 29.68 in 6.2 mi West 9.2 mph - N/A   Mostly Cloudy
5:30 PM 60.8 °F 55.4 °F 82% 29.71 in 6.2 mi West 9.2 mph - N/A   Mostly Cloudy
6:00 PM 59.0 °F 55.4 °F 88% 29.71 in 6.2 mi WNW 6.9 mph - N/A Rain Light Rain
6:30 PM 59.0 °F 55.4 °F 88% 29.74 in 6.2 mi West 9.2 mph - N/A   Mostly Cloudy
7:00 PM 60.8 °F 55.4 °F 82% 29.74 in 6.2 mi NW 8.1 mph - N/A   Mostly Cloudy
7:30 PM 59.0 °F 51.8 °F 77% 29.77 in 6.2 mi NW 9.2 mph - N/A   Mostly Cloudy
8:00 PM 57.2 °F 51.8 °F 82% 29.77 in 6.2 mi NW 10.4 mph - N/A   Mostly Cloudy
8:30 PM 57.2 °F 50.0 °F 77% 29.80 in 6.2 mi NW 6.9 mph - N/A   Mostly Cloudy
9:00 PM 55.4 °F 50.0 °F 82% 29.80 in - NW 8.1 mph - N/A   Clear
9:30 PM 55.4 °F 48.2 °F 77% 29.83 in - NW 6.9 mph - N/A   Clear
10:00 PM 53.6 °F 50.0 °F 88% 29.83 in - WNW 5.8 mph - N/A   Clear
10:30 PM 55.4 °F 50.0 °F 82% 29.86 in - West 5.8 mph - N/A   Clear
11:00 PM 55.4 °F 50.0 °F 82% 29.86 in 6.2 mi West 5.8 mph - N/A   Mostly Cloudy
11:30 PM 55.4 °F 50.0 °F 82% 29.86 in 6.2 mi West 6.9 mph - N/A   Mostly Cloudy